Location: Newark
(43.4306°N, 0.3089°E)
Time: 23:47:08
(UTC+00:00)

Vanguard 3 - Pass Details

Date: 01 September 2019
Orbit: 508 x 3263 km, 33.4° (Epoch: 14 September)

Event Time Altitude Azimuth Distance (km) Brightness Sun altitude
Rises 19:31:50 0° 266° (W) 4,245 12.1 -10.7°
Reaches altitude 10° 19:38:44 10° 224° (SW) 2,483 9.9 -11.9°
Maximum altitude 19:39:01 10° 221° (SW) 2,451 9.8 -11.9°
Drops below altitude 10° 19:39:17 10° 218° (SW) 2,425 9.8 -12.0°
Enters shadow 19:43:57 - 172° (S) 2,794 9.6 -12.8°
Sets 19:44:16 0° 169° (S) 2,871 - -12.8°
